Regional Weather Roundup
Issued by NWS

Home | Current Version | Previous Version | Text Only | Print | Product List | Glossary On
Versions: 1 2 3 4 5 6 7 8 9 10 11 12 13 14 15 16 17 18 19 20 21 22 23 24 25 26 27 28 29 30 31 32 33 34 35 36 37 38 39 40 41 42 43 44 45 46 47 48 49 50
000
ASUS43 KMPX 110301
RWRMN
WEATHER ROUNDUP FOR MINNESOTA
NATIONAL WEATHER SERVICE TWIN CITIES/CHANHASSEN MN
900 PM CST SAT DEC 10 2016


NOTE: "FAIR" INDICATES FEW OR NO CLOUDS BELOW 12,000 FEET WITH NO
SIGNIFICANT WEATHER AND/OR OBSTRUCTIONS TO VISIBILITY. N/A MEANS
CURRENT SKY AND/OR WEATHER CONDITIONS ARE NOT AVAILABLE.

MNZ060>063-068>070-110400-
   Twin Cities Metro

CITY           SKY/WX    TMP DP  RH WIND       PRES   REMARKS
TWIN CITIES    LGT SNOW  13   8  81 E9        30.20F WCI   1
ST PAUL        LGT SNOW  13   9  84 SE7       30.23F FOG     WCI   3
CRYSTAL        LGT SNOW  13   6  74 E7        30.20S WCI   3
BLAINE         LGT SNOW  14  10  85 E6        30.20F WCI   5
LAKEVILLE      LGT SNOW  10   9  92 E8        30.18F WCI  -1
EDEN PRAIRIE   LGT SNOW  13   8  81 E6        30.18F VSB 1   WCI   4
SOUTH ST PAUL  LGT SNOW  14  10  83 CALM      30.20F
LAKE ELMO      LGT SNOW  14  10  85 E5        30.22S WCI   6
$$
MNZ001>005-007-008-013>017-022>024-027-028-110400-
   Northwest Minnesota

CITY           SKY/WX    TMP DP  RH WIND       PRES   REMARKS
BEMIDJI        CLOUDY     0  -5  78 E7        30.18F WCI -13
HALLOCK        CLOUDY    -9 -15  77 E5        30.26F WCI -21
ROSEAU         CLOUDY    -9 -17  70 CALM      30.25S
WARROAD        FLURRIES -11 -17  77 CALM      30.25R
THIEF RVR FALL CLOUDY    -9 -12  87 NE9       30.23F WCI -26
CROOKSTON      CLOUDY    -4  -9  77 E8        30.25F WCI -19
FOSSTON        CLOUDY    -6  -9  84 E5        30.19F WCI -17
DETROIT LAKES  FLURRIES   5   0  78 SE8       30.15S WCI  -8
MOORHEAD       MIX PCPN   3  -2  78 E7        30.20S WCI  -9
PARK RAPIDS    CLOUDY     4  -4  69 E10       30.15F WCI -11
$$
MNZ006-009>011-018-025>026-110400-
   North Central Minnesota

CITY           SKY/WX    TMP DP  RH WIND       PRES   REMARKS
BAUDETTE       CLOUDY    -6 -10  83 E3        30.23F
FLAG ISLAND    CLOUDY     0  -6  78 CALM      30.25F
INTL FALLS     CLOUDY   -13 -18  78 CALM      30.24F
WASKISH        CLOUDY    -6  -9  84 CALM      30.22F
BIG FORK       CLOUDY   -11 -17  77 CALM      30.22S
LONGVILLE      CLOUDY     1  -4  78 CALM      30.19F
GRAND RAPIDS   CLOUDY    -1  -5  82 CALM      30.22F
CRANE LAKE     CLOUDY   -11 -15  84 CALM      30.28F
ORR            CLOUDY   -13 -18  77 CALM      30.20F
COOK           CLOUDY   -11 -15  84 CALM      30.23F
$$
MNZ012-019>021-037-110400-
   Northeast Minnesota

CITY           SKY/WX    TMP DP  RH WIND       PRES   REMARKS
DULUTH         CLOUDY     2  -4  76 N5        30.20F WCI  -8
ELY            CLOUDY   -11 -17  77 CALM      30.23F
HIBBING        CLOUDY   -11 -16  78 CALM      30.22S
EVELETH        CLOUDY    -8 -13  76 CALM      30.23S
DULUTH HARBOR  CLOUDY    10   3  72 CALM      30.28F
TWO HARBORS    CLOUDY     5  -4  66 N6        30.21F WCI  -6
SILVER BAY     CLOUDY    -2  -6  84 CALM      30.23F
GRAND MARAIS     N/A      6  -3  66 N10       30.30F WCI  -9
G MARAIS ARPRT PTCLDY    -8 -15  71 N6        30.19S WCI -21
$$
MNZ029>031-032-039>041-046>048-054>057-064-110400-
   West Central Minnesota

CITY           SKY/WX    TMP DP  RH WIND       PRES   REMARKS
FERGUS FALLS   FLURRIES   5   0  78 E8        30.22R WCI  -8
WHEATON        LGT SNOW  10   7  85 E7        30.17S WCI   0
MORRIS         LGT SNOW  10   7  85 E13       30.11F WCI  -5
ALEXANDRIA     LGT SNOW   7   3  84 E10       30.13F FOG     WCI  -8
ELBOW LAKE     LGT SNOW   7   3  86 E8        30.15F WCI  -6
WADENA         FLURRIES   3   0  85 E3        30.15F
GLENWOOD       LGT SNOW   9   5  85 E13       30.13F WCI  -7
APPLETON       LGT SNOW  10   9  92 E12       30.13F WCI  -4
BENSON         LGT SNOW  10   7  85 SE9       30.13F WCI  -2
ORTONVILLE     LGT SNOW   9   5  85 E10       30.11F WCI  -6
MADISON        LGT SNOW  12  10  92 E8        30.13F VSB 1   WCI   1
WILLMAR        LGT SNOW  12   9  85 E10       30.15F WCI  -1
$$
MNZ033>034-036-042>043-049>051-058-059-110400-
   Central Minnesota

CITY           SKY/WX    TMP DP  RH WIND       PRES   REMARKS
ST CLOUD       LGT SNOW  10   6  84 E6        30.19F FOG     WCI   0
PAYNESVILLE    LGT SNOW  10   8  89 E7        30.17S WCI   0
AITKIN         CLOUDY     7   0  72 E6        30.18F WCI  -3
PINE RIVER     CLOUDY     5   0  78 E6        30.20F WCI  -6
BRAINERD       CLOUDY     7   1  76 E3        30.18F
LONG PRAIRIE   LGT SNOW   9   3  78 NE5       30.17S WCI   0
LITTLE FALLS   LGT SNOW  10   5  79 E6        30.19F WCI   1
LITCHFIELD     LGT SNOW  12   9  85 E9        30.16S WCI   0
BUFFALO        LGT SNOW  12   8  85 E9        30.19F WCI  -1
MAPLE LAKE     LGT SNOW  13  10  90 E9        30.19F WCI   0
HUTCHINSON     LGT SNOW  12   9  88 E8        30.16S WCI   0
$$
MNZ037-044-045-052-053-110400-
   East Central Minnesota

CITY           SKY/WX    TMP DP  RH WIND       PRES   REMARKS
PRINCETON      LGT SNOW  12   9  85 E6        30.20F WCI   3
MORA           LGT SNOW  12   7  79 E5        30.23S WCI   4
CAMBRIDGE      LGT SNOW  12   7  79 E3        30.20S
RUSH CITY      CLOUDY    10   7  85 E5        30.23S WCI   2
MOOSE LAKE     CLOUDY     7   0  72 CALM      30.21S
HINCKLEY       FLURRIES  12   5  73 E3        30.23S
CLOQUET        CLOUDY     1  -4  78 CALM      30.20F
MCGREGOR       CLOUDY     5   1  85 E5        30.20F WCI  -4
$$
MNZ071>073-080-081-089-090-097-098-110400-
   Southwest Minnesota

CITY           SKY/WX    TMP DP  RH WIND       PRES   REMARKS
MONTEVIDEO     LGT SNOW  10   9  92 SE8       30.15F WCI  -1
GRANITE FALLS  LGT SNOW  13  10  88 E8        30.14F WCI   2
CANBY          LGT SNOW  11   9  89 CALM      30.11F VSB 1
MARSHALL       LGT SNOW  11   8  88 E10       30.10F FOG     WCI  -3
REDWOOD FALLS  LGT SNOW  13   8  81 E10       30.13S VSB 1   WCI   0
OLIVIA         LGT SNOW  12  10  92 E8        30.13S VSB 1   WCI   1
PIPESTONE      LGT SNOW  14  10  85 E14       29.99F WCI  -1
WINDOM         LGT SNOW  14  12  92 MISG      30.07S
WORTHINGTON    LGT SNOW  16  14  92 E13       30.02F FOG     WCI   2
JACKSON        LGT SNOW  18  14  86 E10       30.06F WCI   6
TRACY          LGT SNOW  13  10  90 E8        30.08S WCI   2
SLAYTON        LGT SNOW  12  10  92 E9        30.04F WCI   0
$$
MNZ065>067-074>077-082>085-091>093-110400-
   South Central Minnesota

CITY           SKY/WX    TMP DP  RH WIND       PRES   REMARKS
MANKATO        LGT SNOW  13  10  88 E13       30.14F FOG     WCI  -2
NEW ULM        LGT SNOW  12  10  92 E8        30.13S WCI   1
ST JAMES       LGT SNOW  14  12  92 E10       30.12S WCI   1
FAIRMONT       LGT SNOW  17  15  92 E12       30.10S FOG     WCI   4
GLENCOE        LGT SNOW  13  11  93 E8        30.16F VSB 1   WCI   1
OWATONNA       LGT SNOW  14   9  79 E10       30.14F WCI   1
WASECA         LGT SNOW  14  12  92 E13       30.14F WCI   0
ALBERT LEA     LGT SNOW  19  18  93 E9        30.11F WCI   9
$$
MNZ078>079-086>088-094>096-110400-
   Southeast Minnesota

CITY           SKY/WX    TMP DP  RH WIND       PRES   REMARKS
ROCHESTER      LGT SNOW  12  10  92 E10       30.14F FOG     WCI  -1
RED WING       LGT SNOW  14  10  85 E8        30.21F WCI   3
STANTON        LGT SNOW  14  10  85 E6        30.18F WCI   5
DODGE CENTER   LGT SNOW  12   9  85 E10       30.14F WCI  -1
WINONA         LGT SNOW  18  14  86 SE8       30.24F WCI   7
AUSTIN         LGT SNOW  16  12  86 E10       30.12F WCI   3
PRESTON        LGT SNOW  13  10  89 E6        30.16F WCI   4
$$
ABBREVIATIONS USED IN REMARKS
   TC - TEMPERATURES IN CELSIUS
  WCI - WIND CHILL INDEX
   HX - HEAT INDEX
  VSB - VISIBILITY
$$




USA.gov is the U.S. government's official web portal to all federal, state and local government web resources and services.